GW1942 Weather Reports


time (UTC)temp
C
wind
direction
speed
KPH
gust
KPH
rain 1hr
cm
rain 24hr
cm
rain mn
cm
humidity
%
barometer
mb
20260831200134 25 161 4.8 14.5 0.00 0.00 0.00 30 1013.6
20260831194551 24 161 1.6 4.8 0.00 0.00 0.00 30 1014.0
20260831193144 25 161 1.6 4.8 0.00 0.00 0.00 29 1014.3
20260831191539 24 161 1.6 4.8 0.00 0.00 0.00 30 1014.6
20260831190040 23 161 1.6 8.0 0.00 0.00 0.00 31 1014.9
20260831184534 23 161 0.0 4.8 0.00 0.00 0.00 32 1015.3
20260831183030 22 161 1.6 4.8 0.00 0.00 0.00 34 1015.7
20260831181531 21 161 1.6 8.0 0.00 0.00 0.00 34 1015.7
20260831180024 21 161 1.6 4.8 0.00 0.00 0.00 36 1016.0
20260831174521 19 161 1.6 6.4 0.00 0.00 0.00 39 1016.4
20260831173020 19 161 3.2 6.4 0.00 0.00 0.00 39 1016.6
20260831171518 18 161 1.6 3.2 0.00 0.00 0.00 41 1016.7
20260831170016 17 161 0.0 4.8 0.00 0.00 0.00 43 1016.9
20260831164518 17 161 0.0 1.6 0.00 0.00 0.00 44 1017.1
20260831163017 16 161 0.0 1.6 0.00 0.00 0.00 47 1017.4
20260831161511 15 161 0.0 3.2 0.00 0.00 0.00 48 1017.5
20260831160008 15 161 0.0 0.0 0.00 0.00 0.00 48 1017.5
20260831154505 15 161 0.0 0.0 0.00 0.00 0.00 50 1017.7
20260831153100 13 161 0.0 0.0 0.00 0.00 0.00 53 1017.8
20260831153001 13 161 0.0 0.0 0.00 0.00 0.00 52 1017.8
20260831151559 12 161 0.0 0.0 0.00 0.00 0.00 56 1017.8
20260831150058 12 161 0.0 3.2 0.00 0.00 0.00 57 1018.0
20260831144557 11 161 0.0 3.2 0.00 0.00 0.00 60 1017.8
20260831143057 11 161 0.0 1.6 0.00 0.00 0.00 62 1017.8
20260831141605 10 161 0.0 4.8 0.00 0.00 0.00 66 1017.7
20260831140054 8 161 0.0 0.0 0.00 0.00 0.00 72 1017.6
20260831134554 6 161 0.0 0.0 0.00 0.00 0.00 77 1017.4
20260831133050 4 161 0.0 0.0 0.00 0.00 0.00 83 1017.4
20260831131550 3 161 0.0 0.0 0.00 0.00 0.00 82 1017.2
20260831130045 4 161 0.0 0.0 0.00 0.00 0.00 81 1017.1
20260831124543 5 161 0.0 1.6 0.00 0.00 0.00 79 1016.9
20260831123041 5 161 0.0 3.2 0.00 0.00 0.00 80 1016.8
20260831121539 5 161 0.0 0.0 0.00 0.00 0.00 80 1016.9
20260831120038 5 161 0.0 3.2 0.00 0.00 0.00 79 1016.7
20260831114536 5 161 0.0 0.0 0.00 0.00 0.00 80 1016.6
20260831113038 5 161 0.0 0.0 0.00 0.00 0.00 79 1016.5
20260831111531 5 161 0.0 0.0 0.00 0.00 0.00 78 1016.5
20260831110027 6 161 0.0 0.0 0.00 0.00 0.00 79 1016.4
20260831104532 6 161 0.0 3.2 0.00 0.00 0.00 78 1016.3
20260831103021 7 161 0.0 0.0 0.00 0.00 0.00 75 1016.1
20260831101519 7 161 0.0 0.0 0.00 0.00 0.00 75 1015.8
20260831100014 8 161 0.0 0.0 0.00 0.00 0.00 73 1015.7
20260831094510 8 161 0.0 0.0 0.00 0.00 0.00 70 1015.6
20260831093006 10 161 0.0 0.0 0.00 0.00 0.00 68 1015.7
20260831091505 11 161 0.0 0.0 0.00 0.00 0.00 63 1015.6
20260831090105 12 161 0.0 1.6 0.00 0.00 0.00 62 1015.6
20260831084607 12 161 0.0 1.6 0.00 0.00 0.00 62 1015.6
20260831083100 12 161 0.0 1.6 0.00 0.00 0.00 62 1015.6
20260831081558 12 161 0.0 0.0 0.00 0.00 0.00 62 1015.6
20260831080057 12 161 0.0 1.6 0.00 0.00 0.00 63 1015.5
20260831074556 12 161 0.0 0.0 0.00 0.00 0.00 62 1015.4
20260831073054 12 161 0.0 0.0 0.00 0.00 0.00 61 1015.6
20260831071555 12 161 0.0 0.0 0.00 0.00 0.00 58 1015.3
20260831070103 12 161 0.0 1.6 0.00 0.00 0.00 60 1015.3
20260831064548 12 161 0.0 3.2 0.00 0.00 0.00 57 1015.4
20260831063051 12 161 0.0 0.0 0.00 0.00 0.00 59 1015.5
20260831061546 13 161 0.0 0.0 0.00 0.00 0.00 58 1015.5
20260831060042 13 161 0.0 1.6 0.00 0.00 0.00 57 1015.5
20260831054545 13 161 0.0 0.0 0.00 0.00 0.00 56 1015.5
20260831053055 13 161 0.0 1.6 0.00 0.00 0.00 55 1015.5
20260831051544 13 161 0.0 1.6 0.00 0.00 0.00 56 1015.5
20260831050045 13 161 0.0 1.6 0.00 0.00 0.00 55 1015.5
20260831044540 13 161 0.0 4.8 0.00 0.00 0.00 54 1015.5
20260831043043 13 161 3.2 9.7 0.00 0.00 0.00 53 1015.6
20260831041540 13 161 6.4 14.5 0.00 0.00 0.00 53 1015.3
20260831040038 13 161 8.0 14.5 0.00 0.00 0.00 54 1015.3
20260831034541 13 161 6.4 14.5 0.00 0.00 0.00 54 1015.2
20260831033058 13 161 6.4 9.7 0.00 0.00 0.00 53 1015.1
20260831031536 14 161 4.8 11.3 0.00 0.00 0.00 52 1014.8
20260831030034 14 161 4.8 8.0 0.00 0.00 0.00 53 1014.5
20260831024534 14 161 0.0 3.2 0.00 0.00 0.00 53 1014.6
20260831023034 15 161 0.0 0.0 0.00 0.00 0.00 52 1014.4
20260831021533 15 161 0.0 0.0 0.00 0.00 0.00 52 1014.3
20260831020032 16 161 0.0 1.6 0.00 0.00 0.00 48 1014.3
20260831014532 18 161 0.0 1.6 0.00 0.00 0.00 42 1014.3
20260831013032 18 161 0.0 3.2 0.00 0.00 0.00 41 1014.3
20260831011541 19 161 0.0 6.4 0.00 0.00 0.00 39 1014.4
20260831010030 20 161 0.0 3.2 0.00 0.00 0.00 38 1014.5
20260831004530 20 161 0.0 4.8 0.00 0.00 0.00 38 1014.4
20260831003035 19 161 0.0 14.5 0.00 0.00 0.00 39 1014.5
20260831001529 19 161 1.6 6.4 0.00 0.00 0.00 39 1014.4
20260831000035 18 161 1.6 6.4 0.00 0.00 0.00 41 1014.4
20260830234536 18 161 3.2 8.0 0.00 0.00 0.00 44 1014.5
20260830233027 18 161 1.6 8.0 0.00 0.00 0.00 44 1014.8
20260830231527 18 161 3.2 9.7 0.00 0.00 0.00 43 1014.9
20260830230025 18 161 1.6 6.4 0.00 0.00 0.00 41 1014.9
20260830224525 20 161 0.0 8.0 0.00 0.00 0.00 38 1015.0
20260830223024 18 161 3.2 8.0 0.00 0.00 0.00 39 1015.2
20260830221535 18 161 1.6 8.0 0.00 0.00 0.00 42 1015.2
20260830220022 18 161 0.0 4.8 0.00 0.00 0.00 42 1015.3
20260830214522 18 161 0.0 8.0 0.00 0.00 0.00 41 1015.4
20260830213021 18 161 1.6 19.3 0.00 0.00 0.00 39 1015.4
20260830211520 20 161 1.6 14.5 0.00 0.00 0.00 38 1015.4
20260830210016 19 161 1.6 16.1 0.00 0.00 0.00 39 1015.3
20260830204518 18 161 3.2 14.5 0.00 0.00 0.00 40 1015.2
20260830203014 18 161 3.2 12.9 0.00 0.00 0.00 41 1015.0
20260830201513 18 161 0.0 9.7 0.00 0.00 0.00 40 1015.0